"read_dt","SO2 (ppb)","flags","PMT voltage (V)","lamp voltage (V)","lamp intensity (Hz)","internal temp (C)","react chamber temp (C)","sample flow (l/min)","pres (mmHg)","SO2 bkg (ppb)","SO2 coefficient"
2015-07-13 00:00:00,1784E-3,5C000000,-0723,0825,12343,038.1,045.8,0.459,728.5,01.19,0.508
2015-07-13 00:01:00,1698E-3,5C000000,-0723,0824,12139,038.0,045.8,0.459,728.4,01.19,0.508
2015-07-13 00:02:00,1629E-3,5C000000,-0723,0825,12194,038.0,045.8,0.459,728.4,01.19,0.508
2015-07-13 00:03:00,1613E-3,5C000000,-0723,0825,12228,038.0,045.8,0.459,728.4,01.19,0.508
2015-07-13 00:04:00,1758E-3,5C000000,-0723,0825,12282,038.0,045.8,0.459,728.5,01.19,0.508
2015-07-13 00:05:00,1758E-3,5C000000,-0723,0825,12352,038.0,045.8,0.459,728.4,01.19,0.508
2015-07-13 00:06:00,1778E-3,5C000000,-0723,0825,12342,038.1,045.8,0.459,728.5,01.19,0.508
2015-07-13 00:07:00,1782E-3,5C000000,-0723,0825,12316,038.0,045.8,0.459,728.4,01.19,0.508
2015-07-13 00:08:00,1842E-3,5C000000,-0723,0825,12305,038.1,045.8,0.459,728.4,01.19,0.508
2015-07-13 00:09:00,1654E-3,5C000000,-0723,0825,12172,038.1,045.8,0.459,728.5,01.19,0.508
2015-07-13 00:10:00,1882E-3,5C000000,-0723,0825,12283,038.1,045.8,0.459,728.5,01.19,0.508
2015-07-13 00:11:00,1643E-3,5C000000,-0723,0823,12157,038.1,045.8,0.459,728.4,01.19,0.508
2015-07-13 00:12:00,1694E-3,5C000000,-0723,0824,12066,038.1,045.8,0.459,728.5,01.19,0.508
2015-07-13 00:13:00,1615E-3,5C000000,-0723,0825,12123,038.1,045.8,0.459,728.5,01.19,0.508
2015-07-13 00:14:00,1653E-3,5C000000,-0723,0824,12143,038.1,045.8,0.459,728.5,01.19,0.508
2015-07-13 00:15:00,1768E-3,5C000000,-0723,0824,12218,038.1,045.8,0.459,728.4,01.19,0.508
2015-07-13 00:16:00,1760E-3,5C000000,-0723,0825,12309,038.1,045.8,0.459,728.4,01.19,0.508
2015-07-13 00:17:00,1655E-3,5C000000,-0723,0825,12132,038.1,045.8,0.459,728.4,01.19,0.508
2015-07-13 00:18:00,1821E-3,5C000000,-0723,0824,12448,038.2,045.8,0.459,728.5,01.19,0.508
2015-07-13 00:19:00,1745E-3,5C000000,-0723,0824,12282,038.1,045.8,0.459,728.5,01.19,0.508
2015-07-13 00:20:00,1714E-3,5C000000,-0723,0823,12196,038.1,045.8,0.459,728.4,01.19,0.508
2015-07-13 00:21:00,1741E-3,5C000000,-0723,0823,12306,038.2,045.8,0.459,728.4,01.19,0.508
2015-07-13 00:22:00,1791E-3,5C000000,-0723,0824,12311,038.2,045.8,0.459,728.5,01.19,0.508
2015-07-13 00:23:00,1795E-3,5C000000,-0723,0824,12263,038.2,045.8,0.459,728.5,01.19,0.508
2015-07-13 00:24:00,1781E-3,5C000000,-0723,0824,12226,038.2,045.8,0.459,728.6,01.19,0.508
2015-07-13 00:25:00,1794E-3,5C000000,-0723,0823,12166,038.2,045.8,0.459,728.5,01.19,0.508
2015-07-13 00:26:00,1625E-3,5C000000,-0723,0824,12207,038.2,045.8,0.459,728.5,01.19,0.508
2015-07-13 00:27:00,1796E-3,5C000000,-0723,0824,12302,038.2,045.8,0.459,728.5,01.19,0.508
2015-07-13 00:28:00,1701E-3,5C000000,-0723,0824,12340,038.2,045.8,0.459,728.5,01.19,0.508
2015-07-13 00:29:00,1808E-3,5C000000,-0723,0824,12238,038.2,045.8,0.459,728.5,01.19,0.508
2015-07-13 00:30:00,1784E-3,5C000000,-0723,0824,12293,038.2,045.8,0.459,728.6,01.19,0.508
2015-07-13 00:31:00,1721E-3,5C000000,-0723,0823,12368,038.2,045.8,0.459,728.6,01.19,0.508
2015-07-13 00:32:00,1803E-3,5C000000,-0723,0824,12310,038.2,045.8,0.459,728.6,01.19,0.508
2015-07-13 00:33:00,1773E-3,5C000000,-0723,0824,12274,038.2,045.8,0.459,728.5,01.19,0.508
2015-07-13 00:34:00,1868E-3,5C000000,-0723,0823,12279,038.2,045.8,0.459,728.6,01.19,0.508
2015-07-13 00:35:00,1796E-3,5C000000,-0723,0824,12222,038.2,045.8,0.459,728.6,01.19,0.508
2015-07-13 00:36:00,1864E-3,5C000000,-0723,0823,12091,038.3,045.8,0.459,728.5,01.19,0.508
2015-07-13 00:37:00,1688E-3,5C000000,-0723,0824,12356,038.2,045.8,0.459,728.6,01.19,0.508
2015-07-13 00:38:00,1691E-3,5C000000,-0723,0824,12228,038.3,045.8,0.459,728.5,01.19,0.508
2015-07-13 00:39:00,1824E-3,5C000000,-0723,0823,12226,038.3,045.8,0.459,728.6,01.19,0.508
2015-07-13 00:40:00,1879E-3,5C000000,-0723,0824,12142,038.3,045.8,0.459,728.5,01.19,0.508
2015-07-13 00:41:00,1941E-3,5C000000,-0723,0824,12211,038.3,045.8,0.459,728.5,01.19,0.508
2015-07-13 00:42:00,1752E-3,5C000000,-0723,0824,12322,038.3,045.8,0.459,728.5,01.19,0.508
2015-07-13 00:43:00,1665E-3,5C000000,-0723,0825,12235,038.3,045.8,0.459,728.6,01.19,0.508
2015-07-13 00:44:00,1527E-3,5C000000,-0723,0824,12223,038.3,045.8,0.459,728.5,01.19,0.508
2015-07-13 00:45:00,1688E-3,5C000000,-0723,0823,12082,038.3,045.8,0.459,728.6,01.19,0.508
2015-07-13 00:46:00,1700E-3,5C000000,-0723,0824,12185,038.3,045.8,0.459,728.5,01.19,0.508
2015-07-13 00:47:00,1765E-3,5C000000,-0723,0825,12150,038.3,045.8,0.459,728.5,01.19,0.508
2015-07-13 00:48:00,1739E-3,5C000000,-0723,0824,12229,038.3,045.8,0.459,728.5,01.19,0.508
2015-07-13 00:49:00,1719E-3,5C000000,-0723,0823,12304,038.3,045.8,0.459,728.5,01.19,0.508
2015-07-13 00:50:00,1598E-3,5C000000,-0723,0823,12303,038.3,045.8,0.459,728.5,01.19,0.508
2015-07-13 00:51:00,1753E-3,5C000000,-0723,0823,12323,038.3,045.8,0.459,728.4,01.19,0.508
2015-07-13 00:52:00,1786E-3,5C000000,-0723,0824,12130,038.3,045.8,0.459,728.5,01.19,0.508
2015-07-13 00:53:00,1814E-3,5C000000,-0723,0823,12316,038.3,045.8,0.459,728.4,01.19,0.508
2015-07-13 00:54:00,1756E-3,5C000000,-0723,0824,12208,038.3,045.8,0.459,728.4,01.19,0.508
2015-07-13 00:55:00,1822E-3,5C000000,-0723,0825,12223,038.3,045.8,0.458,728.5,01.19,0.508
2015-07-13 00:56:00,1705E-3,5C000000,-0723,0825,12124,038.3,045.8,0.459,728.4,01.19,0.508
2015-07-13 00:57:00,1718E-3,5C000000,-0723,0825,12276,038.3,045.8,0.458,728.4,01.19,0.508
2015-07-13 00:58:00,1695E-3,5C000000,-0723,0824,12213,038.3,045.8,0.459,728.5,01.19,0.508
2015-07-13 00:59:00,1919E-3,5C000000,-0723,0825,12271,038.4,045.8,0.458,728.5,01.19,0.508
2015-07-13 01:00:00,1605E-3,5C000000,-0723,0824,12286,038.4,045.8,0.459,728.5,01.19,0.508
2015-07-13 01:01:00,1687E-3,5C000000,-0723,0824,12407,038.4,045.8,0.458,728.5,01.19,0.508
2015-07-13 01:02:00,1690E-3,5C000000,-0723,0824,12219,038.4,045.8,0.459,728.5,01.19,0.508
2015-07-13 01:03:00,1701E-3,5C000000,-0723,0824,12316,038.4,045.8,0.459,728.4,01.19,0.508
2015-07-13 01:04:00,1709E-3,5C000000,-0723,0824,12189,038.4,045.8,0.459,728.4,01.19,0.508
2015-07-13 01:05:00,1670E-3,5C000000,-0723,0824,12248,038.4,045.8,0.459,728.5,01.19,0.508
2015-07-13 01:06:00,1647E-3,5C000000,-0723,0825,12269,038.4,045.8,0.458,728.4,01.19,0.508
2015-07-13 01:07:00,1737E-3,5C000000,-0723,0824,12047,038.4,045.8,0.459,728.4,01.19,0.508
2015-07-13 01:08:00,1789E-3,5C000000,-0723,0825,12313,038.4,045.8,0.458,728.4,01.19,0.508
2015-07-13 01:09:00,1817E-3,5C000000,-0723,0824,12213,038.4,045.8,0.459,728.5,01.19,0.508
2015-07-13 01:10:00,1728E-3,5C000000,-0723,0824,12235,038.4,045.8,0.458,728.4,01.19,0.508
2015-07-13 01:11:00,1701E-3,5C000000,-0723,0824,12232,038.4,045.8,0.459,728.4,01.19,0.508
2015-07-13 01:12:00,1755E-3,5C000000,-0723,0825,12174,038.5,045.8,0.459,728.4,01.19,0.508
2015-07-13 01:13:00,1769E-3,5C000000,-0723,0824,12099,038.4,045.8,0.458,728.4,01.19,0.508
2015-07-13 01:14:00,1661E-3,5C000000,-0723,0824,12399,038.5,045.8,0.459,728.4,01.19,0.508
2015-07-13 01:15:00,1636E-3,5C000000,-0723,0824,12163,038.5,045.8,0.458,728.5,01.19,0.508
2015-07-13 01:16:00,1800E-3,5C000000,-0723,0823,12232,038.5,045.8,0.459,728.5,01.19,0.508
2015-07-13 01:17:00,1630E-3,5C000000,-0723,0824,12111,038.5,045.8,0.459,728.4,01.19,0.508
2015-07-13 01:18:00,1714E-3,5C000000,-0723,0824,12099,038.5,045.8,0.458,728.4,01.19,0.508
2015-07-13 01:19:00,1802E-3,5C000000,-0723,0824,12382,038.5,045.8,0.459,728.4,01.19,0.508
2015-07-13 01:20:00,1696E-3,5C000000,-0723,0824,12107,038.5,045.8,0.458,728.4,01.19,0.508
2015-07-13 01:21:00,1752E-3,5C000000,-0723,0824,12261,038.5,045.8,0.458,728.4,01.19,0.508
2015-07-13 01:22:00,1697E-3,5C000000,-0723,0824,12224,038.5,045.8,0.459,728.4,01.19,0.508
2015-07-13 01:23:00,1804E-3,5C000000,-0723,0823,12371,038.5,045.8,0.458,728.4,01.19,0.508
2015-07-13 01:24:00,1829E-3,5C000000,-0723,0824,12136,038.5,045.8,0.458,728.4,01.19,0.508
2015-07-13 01:25:00,1682E-3,5C000000,-0723,0825,12220,038.5,045.8,0.459,728.4,01.19,0.508
2015-07-13 01:26:00,1678E-3,5C000000,-0723,0825,12106,038.6,045.8,0.458,728.5,01.19,0.508
2015-07-13 01:27:00,1710E-3,5C000000,-0723,0824,12280,038.6,045.8,0.459,728.4,01.19,0.508
2015-07-13 01:28:00,1827E-3,5C000000,-0723,0824,12313,038.5,045.8,0.458,728.4,01.19,0.508
2015-07-13 01:29:00,1681E-3,5C000000,-0723,0824,12191,038.6,045.8,0.458,728.4,01.19,0.508
2015-07-13 01:30:00,1746E-3,5C000000,-0723,0825,12291,038.6,045.8,0.459,728.4,01.19,0.508
2015-07-13 01:31:00,1743E-3,5C000000,-0723,0824,12213,038.6,045.8,0.458,728.4,01.19,0.508
2015-07-13 01:32:00,1743E-3,5C000000,-0723,0825,12345,038.6,045.8,0.458,728.4,01.19,0.508
2015-07-13 01:33:00,1620E-3,5C000000,-0723,0824,12351,038.6,045.8,0.459,728.4,01.19,0.508
2015-07-13 01:34:00,1617E-3,5C000000,-0723,0824,12411,038.6,045.8,0.458,728.4,01.19,0.508
2015-07-13 01:35:00,1734E-3,5C000000,-0723,0825,12218,038.6,045.8,0.458,728.4,01.19,0.508
2015-07-13 01:36:00,1752E-3,5C000000,-0723,0825,12155,038.6,045.8,0.458,728.4,01.19,0.508
2015-07-13 01:37:00,1787E-3,5C000000,-0723,0825,12371,038.6,045.8,0.458,728.3,01.19,0.508
2015-07-13 01:38:00,1821E-3,5C000000,-0723,0826,12237,038.6,045.8,0.458,728.3,01.19,0.508
2015-07-13 01:39:00,1776E-3,5C000000,-0723,0825,12196,038.7,045.8,0.458,728.4,01.19,0.508
2015-07-13 01:40:00,1643E-3,5C000000,-0723,0826,12324,038.7,045.8,0.459,728.4,01.19,0.508
2015-07-13 01:41:00,1680E-3,5C000000,-0723,0825,12316,038.7,045.8,0.458,728.3,01.19,0.508
2015-07-13 01:42:00,1791E-3,5C000000,-0723,0824,12064,038.7,045.8,0.458,728.3,01.19,0.508
2015-07-13 01:43:00,1801E-3,5C000000,-0723,0824,12220,038.7,045.8,0.458,728.3,01.19,0.508
2015-07-13 01:44:00,1727E-3,5C000000,-0723,0824,12313,038.7,045.8,0.459,728.3,01.19,0.508
2015-07-13 01:45:00,1771E-3,5C000000,-0723,0825,12130,038.7,045.8,0.458,728.3,01.19,0.508
2015-07-13 01:46:00,1784E-3,5C000000,-0723,0825,12285,038.7,045.8,0.458,728.3,01.19,0.508
2015-07-13 01:47:00,1781E-3,5C000000,-0723,0824,12245,038.7,045.8,0.458,728.3,01.19,0.508
2015-07-13 01:48:00,1802E-3,5C000000,-0723,0824,12228,038.7,045.8,0.458,728.3,01.19,0.508
2015-07-13 01:49:00,1605E-3,5C000000,-0723,0825,12190,038.7,045.8,0.458,728.3,01.19,0.508
2015-07-13 01:50:00,1771E-3,5C000000,-0723,0824,12291,038.7,045.8,0.458,728.4,01.19,0.508
2015-07-13 01:51:00,1701E-3,5C000000,-0723,0822,12210,038.7,045.8,0.458,728.3,01.19,0.508
2015-07-13 01:52:00,1830E-3,5C000000,-0723,0824,12251,038.8,045.8,0.458,728.3,01.19,0.508
2015-07-13 01:53:00,1781E-3,5C000000,-0723,0823,12308,038.8,045.8,0.458,728.3,01.19,0.508
2015-07-13 01:54:00,1795E-3,5C000000,-0723,0823,12286,038.8,045.8,0.458,728.2,01.19,0.508
2015-07-13 01:55:00,1706E-3,5C000000,-0723,0823,12024,038.8,045.8,0.458,728.2,01.19,0.508
2015-07-13 01:56:00,1668E-3,5C000000,-0723,0824,12072,038.8,045.8,0.458,728.2,01.19,0.508
2015-07-13 01:57:00,1712E-3,5C000000,-0723,0823,12140,038.8,045.8,0.458,728.2,01.19,0.508
2015-07-13 01:58:00,1748E-3,5C000000,-0723,0823,12207,038.8,045.8,0.458,728.3,01.19,0.508
2015-07-13 01:59:00,1737E-3,5C000000,-0723,0824,12251,038.8,045.8,0.458,728.2,01.19,0.508
2015-07-13 02:00:00,1789E-3,5C000000,-0723,0824,12199,038.8,045.8,0.458,728.2,01.19,0.508
2015-07-13 02:01:00,1771E-3,5C000000,-0723,0823,12158,038.8,045.8,0.458,728.2,01.19,0.508
2015-07-13 02:02:00,1740E-3,5C000000,-0723,0823,12145,038.8,045.8,0.458,728.2,01.19,0.508
2015-07-13 02:03:00,1821E-3,5C000000,-0723,0824,12075,038.8,045.8,0.458,728.2,01.19,0.508
2015-07-13 02:04:00,1737E-3,5C000000,-0723,0824,12438,038.9,045.8,0.458,728.2,01.19,0.508
2015-07-13 02:05:00,1820E-3,5C000000,-0723,0823,12261,038.8,045.8,0.458,728.2,01.19,0.508
2015-07-13 02:06:00,1720E-3,5C000000,-0723,0824,12082,038.9,045.8,0.458,728.3,01.19,0.508
2015-07-13 02:07:00,1788E-3,5C000000,-0723,0824,12253,038.9,045.8,0.457,728.1,01.19,0.508
2015-07-13 02:08:00,1805E-3,5C000000,-0723,0823,12156,038.9,045.8,0.458,728.2,01.19,0.508
2015-07-13 02:09:00,1775E-3,5C000000,-0723,0824,12161,038.9,045.8,0.458,728.3,01.19,0.508
2015-07-13 02:10:00,1784E-3,5C000000,-0723,0825,12121,038.9,045.8,0.458,728.3,01.19,0.508
2015-07-13 02:11:00,1732E-3,5C000000,-0723,0823,12183,038.9,045.8,0.458,728.2,01.19,0.508
2015-07-13 02:12:00,1700E-3,5C000000,-0723,0826,12286,038.9,045.8,0.458,728.1,01.19,0.508
2015-07-13 02:13:00,1677E-3,5C000000,-0723,0826,12206,038.9,045.8,0.458,728.2,01.19,0.508
2015-07-13 02:14:00,1709E-3,5C000000,-0723,0825,12310,038.9,045.8,0.457,728.3,01.19,0.508
2015-07-13 02:15:00,1582E-3,5C000000,-0723,0825,12180,038.9,045.8,0.458,728.2,01.19,0.508
2015-07-13 02:16:00,1642E-3,5C000000,-0723,0825,12152,038.9,045.8,0.458,728.2,01.19,0.508
2015-07-13 02:17:00,1848E-3,5C000000,-0723,0825,12305,039.0,045.8,0.458,728.1,01.19,0.508
2015-07-13 02:18:00,1693E-3,5C000000,-0723,0825,12372,039.0,045.8,0.458,728.0,01.19,0.508
2015-07-13 02:19:00,1661E-3,5C000000,-0723,0824,12338,039.0,045.8,0.458,728.1,01.19,0.508
2015-07-13 02:20:00,1683E-3,5C000000,-0723,0824,12161,039.0,045.8,0.457,728.1,01.19,0.508
2015-07-13 02:21:00,1676E-3,5C000000,-0723,0825,12226,039.0,045.8,0.457,728.1,01.19,0.508
2015-07-13 02:22:00,1883E-3,5C000000,-0723,0824,12263,039.0,045.8,0.457,728.0,01.19,0.508
2015-07-13 02:23:00,1790E-3,5C000000,-0723,0825,12078,039.0,045.8,0.458,728.2,01.19,0.508
2015-07-13 02:24:00,1653E-3,5C000000,-0723,0824,12195,039.0,045.8,0.458,728.2,01.19,0.508
2015-07-13 02:25:00,1749E-3,5C000000,-0723,0825,12304,039.0,045.8,0.458,728.1,01.19,0.508
2015-07-13 02:26:00,1735E-3,5C000000,-0723,0825,12281,039.0,045.8,0.458,728.2,01.19,0.508
2015-07-13 02:27:00,1645E-3,5C000000,-0723,0824,12485,039.0,045.8,0.458,728.1,01.19,0.508
2015-07-13 02:28:00,1777E-3,5C000000,-0723,0824,12282,039.0,045.8,0.457,728.1,01.19,0.508
2015-07-13 02:29:00,1683E-3,5C000000,-0723,0824,12223,039.1,045.8,0.457,728.2,01.19,0.508
2015-07-13 02:30:00,1645E-3,5C000000,-0723,0824,12415,039.1,045.8,0.457,728.1,01.19,0.508
2015-07-13 02:31:00,1654E-3,5C000000,-0723,0823,12196,039.1,045.8,0.457,728.1,01.19,0.508
2015-07-13 02:32:00,1740E-3,5C000000,-0723,0825,12351,039.1,045.8,0.457,728.1,01.19,0.508
2015-07-13 02:33:00,1716E-3,5C000000,-0723,0826,12137,039.1,045.8,0.458,728.2,01.19,0.508
2015-07-13 02:34:00,1637E-3,5C000000,-0723,0825,12272,039.1,045.8,0.458,728.2,01.19,0.508
2015-07-13 02:35:00,1749E-3,5C000000,-0723,0825,12181,039.1,045.8,0.458,728.2,01.19,0.508
2015-07-13 02:36:00,1714E-3,5C000000,-0723,0825,12321,039.1,045.8,0.458,728.1,01.19,0.508
2015-07-13 02:37:00,1806E-3,5C000000,-0723,0824,12262,039.1,045.8,0.458,728.2,01.19,0.508
2015-07-13 02:38:00,1661E-3,5C000000,-0723,0824,12172,039.1,045.8,0.458,728.2,01.19,0.508
2015-07-13 02:39:00,1761E-3,5C000000,-0723,0825,12283,039.1,045.8,0.458,728.2,01.19,0.508
2015-07-13 02:40:00,1681E-3,5C000000,-0723,0825,12316,039.1,045.9,0.458,728.2,01.19,0.508
2015-07-13 02:41:00,1775E-3,5C000000,-0723,0824,12251,039.2,045.8,0.458,728.2,01.19,0.508
2015-07-13 02:42:00,1791E-3,5C000000,-0723,0825,12202,039.2,045.8,0.458,728.2,01.19,0.508
2015-07-13 02:43:00,1775E-3,5C000000,-0723,0825,12209,039.2,045.9,0.457,728.2,01.19,0.508
2015-07-13 02:44:00,1768E-3,5C000000,-0723,0825,12414,039.2,045.8,0.457,728.2,01.19,0.508
2015-07-13 02:45:00,1745E-3,5C000000,-0723,0825,12374,039.2,045.8,0.457,728.2,01.19,0.508
2015-07-13 02:46:00,1763E-3,5C000000,-0723,0824,12346,039.2,045.9,0.457,728.2,01.19,0.508
2015-07-13 02:47:00,1711E-3,5C000000,-0723,0825,12335,039.2,045.8,0.457,728.2,01.19,0.508
2015-07-13 02:48:00,1688E-3,5C000000,-0723,0825,12021,039.2,045.8,0.457,728.2,01.19,0.508
2015-07-13 02:49:00,1622E-3,5C000000,-0723,0825,12263,039.2,045.9,0.457,728.1,01.19,0.508
2015-07-13 02:50:00,1749E-3,5C000000,-0723,0825,12326,039.2,045.9,0.457,728.0,01.19,0.508
2015-07-13 02:51:00,1697E-3,5C000000,-0723,0825,12325,039.2,045.9,0.457,728.1,01.19,0.508
2015-07-13 02:52:00,1683E-3,5C000000,-0723,0825,12297,039.2,045.9,0.457,728.1,01.19,0.508
2015-07-13 02:53:00,1759E-3,5C000000,-0723,0825,12218,039.3,045.8,0.457,728.1,01.19,0.508
2015-07-13 02:54:00,1711E-3,5C000000,-0723,0824,12318,039.3,045.9,0.457,728.2,01.19,0.508
2015-07-13 02:55:00,1637E-3,5C000000,-0723,0825,12337,039.3,045.8,0.457,728.2,01.19,0.508
2015-07-13 02:56:00,1705E-3,5C000000,-0723,0825,12169,039.3,045.8,0.457,728.2,01.19,0.508
2015-07-13 02:57:00,1682E-3,5C000000,-0723,0825,12037,039.3,045.8,0.458,728.1,01.19,0.508
2015-07-13 02:58:00,1750E-3,5C000000,-0723,0824,12169,039.3,045.9,0.458,728.2,01.19,0.508
2015-07-13 02:59:00,1717E-3,5C000000,-0723,0824,12326,039.3,045.9,0.457,728.2,01.19,0.508
2015-07-13 03:00:00,1758E-3,5C000000,-0723,0824,12291,039.3,045.9,0.457,728.2,01.19,0.508
2015-07-13 03:01:00,1757E-3,5C000000,-0723,0826,12184,039.3,045.9,0.457,728.2,01.19,0.508
2015-07-13 03:02:00,1754E-3,5C000000,-0723,0825,12263,039.3,045.9,0.457,728.2,01.19,0.508
2015-07-13 03:03:00,1757E-3,5C000000,-0723,0824,12187,039.3,045.9,0.457,728.1,01.19,0.508
2015-07-13 03:04:00,1630E-3,5C000000,-0723,0825,12201,039.3,045.9,0.457,728.2,01.19,0.508
2015-07-13 03:05:00,1894E-3,5C000000,-0723,0825,12409,039.3,045.9,0.457,728.1,01.19,0.508
2015-07-13 03:06:00,1636E-3,5C000000,-0723,0825,11896,039.3,045.9,0.457,728.2,01.19,0.508
2015-07-13 03:07:00,1721E-3,5C000000,-0723,0824,12205,039.3,045.8,0.457,728.3,01.19,0.508
2015-07-13 03:08:00,1684E-3,5C000000,-0723,0825,12148,039.4,045.9,0.457,728.2,01.19,0.508
2015-07-13 03:09:00,1827E-3,5C000000,-0723,0825,12135,039.4,045.9,0.457,728.2,01.19,0.508
2015-07-13 03:10:00,1672E-3,5C000000,-0723,0825,12216,039.4,045.9,0.457,728.3,01.19,0.508
2015-07-13 03:11:00,1635E-3,5C000000,-0723,0825,12347,039.4,045.9,0.457,728.3,01.19,0.508
2015-07-13 03:12:00,1676E-3,5C000000,-0723,0824,12226,039.4,045.9,0.457,728.3,01.19,0.508
2015-07-13 03:13:00,1812E-3,5C000000,-0723,0825,12355,039.4,045.9,0.457,728.3,01.19,0.508
2015-07-13 03:14:00,1748E-3,5C000000,-0723,0825,12154,039.4,045.9,0.457,728.2,01.19,0.508
2015-07-13 03:15:00,1692E-3,5C000000,-0723,0825,12398,039.4,045.8,0.457,728.2,01.19,0.508
2015-07-13 03:16:00,1615E-3,5C000000,-0723,0825,12236,039.4,045.8,0.457,728.3,01.19,0.508
2015-07-13 03:17:00,1783E-3,5C000000,-0723,0825,12368,039.4,045.9,0.457,728.3,01.19,0.508
2015-07-13 03:18:00,1782E-3,5C000000,-0723,0825,12144,039.4,045.9,0.457,728.3,01.19,0.508
2015-07-13 03:19:00,1830E-3,5C000000,-0723,0825,12315,039.5,045.9,0.457,728.2,01.19,0.508
2015-07-13 03:20:00,1761E-3,5C000000,-0723,0824,12118,039.5,045.9,0.457,728.2,01.19,0.508
2015-07-13 03:21:00,1718E-3,5C000000,-0723,0824,12307,039.4,045.9,0.457,728.3,01.19,0.508
2015-07-13 03:22:00,1762E-3,5C000000,-0723,0826,12137,039.5,045.9,0.457,728.2,01.19,0.508
2015-07-13 03:23:00,1688E-3,5C000000,-0723,0825,12243,039.5,045.9,0.457,728.2,01.19,0.508
2015-07-13 03:24:00,1781E-3,5C000000,-0723,0825,12130,039.5,045.9,0.457,728.2,01.19,0.508
2015-07-13 03:25:00,1747E-3,5C000000,-0723,0825,12112,039.5,045.9,0.457,728.2,01.19,0.508
2015-07-13 03:26:00,1770E-3,5C000000,-0723,0826,12131,039.5,045.9,0.457,728.2,01.19,0.508
2015-07-13 03:27:00,1688E-3,5C000000,-0723,0825,12163,039.5,045.9,0.457,728.2,01.19,0.508
2015-07-13 03:28:00,1594E-3,5C000000,-0723,0824,12217,039.5,045.9,0.457,728.3,01.19,0.508
2015-07-13 03:29:00,1749E-3,5C000000,-0723,0825,12190,039.5,045.9,0.457,728.2,01.19,0.508
2015-07-13 03:30:00,1661E-3,5C000000,-0723,0825,12333,039.5,045.9,0.457,728.2,01.19,0.508
2015-07-13 03:31:00,1593E-3,5C000000,-0723,0826,12171,039.5,045.9,0.457,728.2,01.19,0.508
2015-07-13 03:32:00,1837E-3,5C000000,-0723,0825,12358,039.5,045.9,0.457,728.2,01.19,0.508
2015-07-13 03:33:00,1867E-3,5C000000,-0723,0825,12181,039.6,045.9,0.457,728.2,01.19,0.508
2015-07-13 03:34:00,1669E-3,5C000000,-0723,0824,12179,039.6,045.9,0.456,728.2,01.19,0.508
2015-07-13 03:35:00,1699E-3,5C000000,-0723,0825,12421,039.6,045.9,0.457,728.2,01.19,0.508
2015-07-13 03:36:00,1752E-3,5C000000,-0723,0825,12248,039.6,045.9,0.457,728.2,01.19,0.508
2015-07-13 03:37:00,1744E-3,5C000000,-0723,0825,12292,039.6,045.9,0.457,728.2,01.19,0.508
2015-07-13 03:38:00,1773E-3,5C000000,-0723,0827,12374,039.6,045.9,0.457,728.2,01.19,0.508
2015-07-13 03:39:00,1615E-3,5C000000,-0723,0826,12213,039.6,045.9,0.457,728.1,01.19,0.508
2015-07-13 03:40:00,1645E-3,5C000000,-0723,0825,12314,039.6,045.9,0.457,728.1,01.19,0.508
2015-07-13 03:41:00,1785E-3,5C000000,-0723,0825,12327,039.6,045.9,0.457,728.2,01.19,0.508
2015-07-13 03:42:00,1793E-3,5C000000,-0723,0825,12206,039.6,045.9,0.457,728.2,01.19,0.508
2015-07-13 03:43:00,1645E-3,5C000000,-0723,0825,12313,039.6,045.9,0.457,728.2,01.19,0.508
2015-07-13 03:44:00,1774E-3,5C000000,-0723,0825,12307,039.6,045.9,0.457,728.2,01.19,0.508
2015-07-13 03:45:00,1727E-3,5C000000,-0723,0825,12239,039.6,045.9,0.457,728.3,01.19,0.508
2015-07-13 03:46:00,1685E-3,5C000000,-0723,0825,12237,039.6,045.9,0.457,728.3,01.19,0.508
2015-07-13 03:47:00,1780E-3,5C000000,-0723,0824,12156,039.6,045.9,0.456,728.2,01.19,0.508
2015-07-13 03:48:00,1788E-3,5C000000,-0723,0825,12356,039.6,045.9,0.457,728.3,01.19,0.508
2015-07-13 03:49:00,1685E-3,5C000000,-0723,0825,12393,039.6,045.9,0.457,728.1,01.19,0.508
2015-07-13 03:50:00,1728E-3,5C000000,-0723,0825,12359,039.6,045.9,0.456,728.2,01.19,0.508
2015-07-13 03:51:00,1862E-3,5C000000,-0723,0825,12340,039.6,045.9,0.457,728.3,01.19,0.508
2015-07-13 03:52:00,1727E-3,5C000000,-0723,0824,12337,039.7,045.9,0.456,728.2,01.19,0.508
2015-07-13 03:53:00,1826E-3,5C000000,-0723,0824,12389,039.7,045.9,0.457,728.2,01.19,0.508
2015-07-13 03:54:00,1777E-3,5C000000,-0723,0824,12324,039.6,045.9,0.457,728.3,01.19,0.508
2015-07-13 03:55:00,1764E-3,5C000000,-0723,0824,12206,039.7,045.9,0.457,728.2,01.19,0.508
2015-07-13 03:56:00,1739E-3,5C000000,-0723,0824,12274,039.7,045.9,0.456,728.2,01.19,0.508
2015-07-13 03:57:00,1627E-3,5C000000,-0723,0824,12252,039.7,045.9,0.457,728.3,01.19,0.508
2015-07-13 03:58:00,1737E-3,5C000000,-0723,0824,12159,039.7,045.9,0.457,728.3,01.19,0.508
2015-07-13 03:59:00,1654E-3,5C000000,-0723,0824,12180,039.7,045.9,0.456,728.3,01.19,0.508
2015-07-13 04:00:00,1632E-3,5C000000,-0723,0824,12299,039.7,045.9,0.457,728.3,01.19,0.508
2015-07-13 04:01:00,1769E-3,5C000000,-0723,0824,12040,039.7,045.9,0.457,728.3,01.19,0.508
2015-07-13 04:02:00,1574E-3,5C000000,-0723,0824,12366,039.7,045.9,0.457,728.4,01.19,0.508
2015-07-13 04:03:00,1714E-3,5C000000,-0723,0825,12135,039.7,045.9,0.456,728.2,01.19,0.508
2015-07-13 04:04:00,1782E-3,5C000000,-0723,0825,12125,039.7,045.9,0.457,728.3,01.19,0.508
2015-07-13 04:05:00,1827E-3,5C000000,-0723,0825,12270,039.7,045.9,0.457,728.2,01.19,0.508
2015-07-13 04:06:00,1652E-3,5C000000,-0723,0824,12078,039.7,045.9,0.456,728.3,01.19,0.508
2015-07-13 04:07:00,1997E-3,5C000000,-0723,0824,12346,039.7,045.9,0.457,728.2,01.19,0.508
2015-07-13 04:08:00,1679E-3,5C000000,-0723,0824,12233,039.7,045.9,0.457,728.2,01.19,0.508
2015-07-13 04:09:00,1663E-3,5C000000,-0723,0825,11999,039.8,045.9,0.456,728.2,01.19,0.508
2015-07-13 04:10:00,1674E-3,5C000000,-0723,0825,12235,039.8,045.9,0.457,728.2,01.19,0.508
2015-07-13 04:11:00,1737E-3,5C000000,-0723,0825,12283,039.8,045.9,0.457,728.3,01.19,0.508
2015-07-13 04:12:00,1761E-3,5C000000,-0723,0825,12109,039.8,045.9,0.456,728.3,01.19,0.508
2015-07-13 04:13:00,1673E-3,5C000000,-0723,0825,12216,039.8,045.9,0.457,728.3,01.19,0.508
2015-07-13 04:14:00,1727E-3,5C000000,-0723,0825,12199,039.8,045.9,0.457,728.3,01.19,0.508
2015-07-13 04:15:00,1592E-3,5C000000,-0723,0825,12121,039.8,045.9,0.456,728.1,01.19,0.508
2015-07-13 04:16:00,1755E-3,5C000000,-0723,0825,12187,039.8,045.9,0.457,728.3,01.19,0.508
2015-07-13 04:17:00,1738E-3,5C000000,-0723,0825,12121,039.8,045.9,0.456,728.3,01.19,0.508
2015-07-13 04:18:00,1715E-3,5C000000,-0723,0825,12260,039.8,045.9,0.456,728.2,01.19,0.508
2015-07-13 04:19:00,1697E-3,5C000000,-0723,0825,12183,039.8,045.9,0.457,728.3,01.19,0.508
2015-07-13 04:20:00,1755E-3,5C000000,-0723,0824,12180,039.8,045.9,0.456,728.2,01.19,0.508